Station Historical Data
Daily Summary for February 3, 2017 Units:  Metric    English   Both
« Previous Day
Next Day »
Daily Weekly Monthly Yearly Custom
  High: Low: Average:
Temperature: -5.6 °C -9.7 °C -7.9 °C
Dew Point: -12.7 °C -14.4 °C -13.4 °C
Humidity: 74% 53% 65%
Wind Speed: 27.4km/h 3.2km/h 10.9km/h
Wind Gust: 30.6km/h - -
Wind- - West
Pressure: 1027.7 hPa 1022.9 hPa -
Precipitation: 0 mm    
Historical Graphs
 
 
Tabular Data for February 3, 2017
Time Temperature Dew Point Pressure Wind Wind Speed Wind Gust Humidity Rainfall Rate (Hourly)
00:04 -7.3 °C -13 °C 1023.2 hPa West 4.8 km/h 16.1 km/h 64% 0 mm
00:09 -7.3 °C -12.8 °C 1023.2 hPa West 9.7 km/h 19.3 km/h 65% 0 mm
00:14 -7.4 °C -12.8 °C 1023.2 hPa West 9.7 km/h 20.9 km/h 65% 0 mm
00:19 -7.4 °C -12.8 °C 1023.2 hPa West 11.3 km/h 20.9 km/h 65% 0 mm
00:24 -7.5 °C -12.8 °C 1023.2 hPa WSW 8 km/h 19.3 km/h 66% 0 mm
00:29 -7.5 °C -12.8 °C 1023.2 hPa WNW 8 km/h 20.9 km/h 66% 0 mm
00:34 -7.6 °C -12.9 °C 1023.6 hPa West 14.5 km/h 27.4 km/h 66% 0 mm
00:39 -7.8 °C -13.1 °C 1023.2 hPa WNW 11.3 km/h 22.5 km/h 66% 0 mm
00:44 -7.8 °C -13.1 °C 1023.2 hPa West 11.3 km/h 22.5 km/h 66% 0 mm
00:49 -8 °C -13.1 °C 1023.2 hPa West 11.3 km/h 22.5 km/h 67% 0 mm
00:54 -8.1 °C -13.2 °C 1023.2 hPa WNW 9.7 km/h 20.9 km/h 67% 0 mm
00:59 -8.2 °C -13.1 °C 1023.2 hPa West 9.7 km/h 25.7 km/h 68% 0 mm
01:04 -8.3 °C -13.2 °C 1023.2 hPa WNW 11.3 km/h 16.1 km/h 68% 0 mm
01:09 -8.3 °C -13.2 °C 1023.2 hPa WNW 8 km/h 16.1 km/h 68% 0 mm
01:14 -8.4 °C -13.2 °C 1023.2 hPa West 6.4 km/h 16.1 km/h 68% 0 mm
01:19 -8.5 °C -13.2 °C 1023.2 hPa West 6.4 km/h 16.1 km/h 69% 0 mm
01:24 -8.5 °C -13.2 °C 1023.2 hPa West 8 km/h 17.7 km/h 69% 0 mm
01:29 -8.5 °C -13.2 °C 1023.2 hPa West 8 km/h 17.7 km/h 69% 0 mm
01:34 -8.6 °C -13.2 °C 1023.2 hPa West 8 km/h 14.5 km/h 69% 0 mm
01:39 -8.6 °C -13.3 °C 1023.2 hPa WNW 8 km/h 16.1 km/h 69% 0 mm
01:44 -8.6 °C -13.3 °C 1023.2 hPa WNW 9.7 km/h 12.9 km/h 69% 0 mm
01:49 -8.7 °C -13.2 °C 1023.2 hPa West 8 km/h 20.9 km/h 70% 0 mm
01:54 -8.7 °C -13.2 °C 1023.2 hPa West 9.7 km/h 20.9 km/h 70% 0 mm
01:59 -8.8 °C -13.3 °C 1023.2 hPa West 4.8 km/h 24.1 km/h 70% 0 mm
02:04 -8.8 °C -13.2 °C 1023.2 hPa West 6.4 km/h 17.7 km/h 71% 0 mm
02:09 -8.9 °C -13.2 °C 1023.2 hPa West 8 km/h 16.1 km/h 71% 0 mm
02:14 -8.9 °C -13.2 °C 1023.2 hPa WNW 16.1 km/h 20.9 km/h 71% 0 mm
02:19 -8.9 °C -13 °C 1023.6 hPa West 11.3 km/h 20.9 km/h 72% 0 mm
02:24 -8.8 °C -12.9 °C 1023.6 hPa West 9.7 km/h 20.9 km/h 72% 0 mm
02:29 -8.8 °C -12.9 °C 1023.6 hPa West 11.3 km/h 27.4 km/h 72% 0 mm
02:34 -8.9 °C -13 °C 1023.6 hPa West 11.3 km/h 27.4 km/h 72% 0 mm
02:39 -8.8 °C -12.9 °C 1023.6 hPa West 9.7 km/h 19.3 km/h 72% 0 mm
02:44 -8.8 °C -12.9 °C 1023.6 hPa West 9.7 km/h 20.9 km/h 72% 0 mm
02:49 -8.8 °C -12.8 °C 1023.6 hPa West 12.9 km/h 25.7 km/h 73% 0 mm
02:54 -8.8 °C -12.7 °C 1023.9 hPa NW 4.8 km/h 20.9 km/h 73% 0 mm
02:59 -8.7 °C -12.8 °C 1023.9 hPa West 11.3 km/h 22.5 km/h 72% 0 mm
03:04 -8.7 °C -12.8 °C 1023.9 hPa West 9.7 km/h 25.7 km/h 72% 0 mm
03:09 -8.7 °C -12.8 °C 1023.9 hPa West 12.9 km/h 22.5 km/h 72% 0 mm
03:14 -8.8 °C -13.1 °C 1023.9 hPa WNW 22.5 km/h 30.6 km/h 71% 0 mm
03:19 -8.8 °C -12.9 °C 1023.9 hPa WSW 9.7 km/h 25.7 km/h 72% 0 mm
03:24 -8.8 °C -12.9 °C 1023.9 hPa West 14.5 km/h 29 km/h 72% 0 mm
03:29 -8.9 °C -13 °C 1023.6 hPa West 12.9 km/h 29 km/h 72% 0 mm
03:34 -8.9 °C -13.1 °C 1023.6 hPa West 11.3 km/h 24.1 km/h 72% 0 mm
03:39 -9.1 °C -13.2 °C 1023.6 hPa West 9.7 km/h 22.5 km/h 72% 0 mm
03:44 -9.2 °C -13.3 °C 1023.6 hPa West 11.3 km/h 22.5 km/h 72% 0 mm
03:49 -9.2 °C -13.3 °C 1023.6 hPa West 11.3 km/h 22.5 km/h 72% 0 mm
03:54 -9.3 °C -13.4 °C 1023.6 hPa WSW 9.7 km/h 20.9 km/h 72% 0 mm
03:59 -9.4 °C -13.3 °C 1023.6 hPa NNW 3.2 km/h 17.7 km/h 73% 0 mm
04:04 -9.4 °C -13.3 °C 1023.6 hPa WSW 4.8 km/h 19.3 km/h 73% 0 mm
04:09 -9.5 °C -13.4 °C 1023.6 hPa West 12.9 km/h 14.5 km/h 73% 0 mm
04:14 -9.5 °C -13.4 °C 1023.6 hPa WNW 12.9 km/h 16.1 km/h 73% 0 mm
04:19 -9.5 °C -13.4 °C 1023.6 hPa WSW 8 km/h 16.1 km/h 73% 0 mm
04:24 -9.6 °C -13.5 °C 1023.6 hPa WNW 11.3 km/h 17.7 km/h 73% 0 mm
04:29 -9.6 °C -13.4 °C 1023.6 hPa West 9.7 km/h 19.3 km/h 74% 0 mm
04:34 -9.7 °C -13.6 °C 1023.6 hPa West 9.7 km/h 19.3 km/h 73% 0 mm
04:39 -9.7 °C -13.4 °C 1023.9 hPa West 9.7 km/h 19.3 km/h 74% 0 mm
04:44 -9.6 °C -13.4 °C 1023.9 hPa West 9.7 km/h 25.7 km/h 74% 0 mm
04:49 -9.5 °C -13.3 °C 1023.6 hPa West 9.7 km/h 25.7 km/h 74% 0 mm
04:54 -9.3 °C -13.3 °C 1023.9 hPa West 14.5 km/h 24.1 km/h 73% 0 mm
04:59 -9.2 °C -13.2 °C 1023.6 hPa West 11.3 km/h 24.1 km/h 73% 0 mm
05:04 -9.2 °C -13.3 °C 1023.6 hPa West 16.1 km/h 22.5 km/h 72% 0 mm
05:09 -9.1 °C -13.2 °C 1023.6 hPa WNW 11.3 km/h 22.5 km/h 72% 0 mm
05:14 -9.1 °C -13.2 °C 1023.6 hPa WNW 6.4 km/h 20.9 km/h 72% 0 mm
05:19 -9 °C -13.1 °C 1023.6 hPa West 11.3 km/h 22.5 km/h 72% 0 mm
05:24 -8.9 °C -13.2 °C 1023.6 hPa NW 11.3 km/h 22.5 km/h 71% 0 mm
05:29 -8.9 °C -13.2 °C 1023.6 hPa West 6.4 km/h 24.1 km/h 71% 0 mm
05:34 -8.9 °C -13.2 °C 1023.6 hPa WNW 12.9 km/h 25.7 km/h 71% 0 mm
05:39 -8.9 °C -13.2 °C 1023.6 hPa West 12.9 km/h 25.7 km/h 71% 0 mm
05:44 -8.9 °C -13.2 °C 1023.6 hPa WNW 11.3 km/h 24.1 km/h 71% 0 mm
05:49 -8.9 °C -13.2 °C 1023.6 hPa WNW 11.3 km/h 19.3 km/h 71% 0 mm
05:54 -8.9 °C -13.2 °C 1023.9 hPa WNW 11.3 km/h 22.5 km/h 71% 0 mm
05:59 -8.9 °C -13.2 °C 1023.9 hPa West 11.3 km/h 22.5 km/h 71% 0 mm
06:04 -8.9 °C -13.4 °C 1023.9 hPa NW 8 km/h 20.9 km/h 70% 0 mm
06:09 -8.8 °C -13.4 °C 1023.9 hPa NW 8 km/h 24.1 km/h 69% 0 mm
06:14 -8.8 °C -13.4 °C 1023.9 hPa West 11.3 km/h 22.5 km/h 69% 0 mm
06:19 -8.8 °C -13.4 °C 1023.9 hPa West 11.3 km/h 16.1 km/h 69% 0 mm
06:24 -8.8 °C -13.4 °C 1023.9 hPa NW 8 km/h 25.7 km/h 69% 0 mm
06:29 -8.8 °C -13.4 °C 1023.9 hPa WNW 14.5 km/h 24.1 km/h 69% 0 mm
06:34 -8.8 °C -13.4 °C 1023.9 hPa WSW 9.7 km/h 27.4 km/h 69% 0 mm
06:39 -8.8 °C -13.6 °C 1023.9 hPa West 11.3 km/h 27.4 km/h 68% 0 mm
06:44 -8.8 °C -13.6 °C 1023.9 hPa West 12.9 km/h 24.1 km/h 68% 0 mm
06:49 -8.8 °C -13.7 °C 1023.9 hPa West 12.9 km/h 25.7 km/h 68% 0 mm
06:54 -8.9 °C -13.9 °C 1023.9 hPa West 12.9 km/h 30.6 km/h 67% 0 mm
06:59 -9 °C -13.8 °C 1023.9 hPa West 11.3 km/h 30.6 km/h 68% 0 mm
07:04 -9.1 °C -13.9 °C 1023.9 hPa West 9.7 km/h 17.7 km/h 68% 0 mm
07:09 -9.2 °C -14 °C 1023.9 hPa WSW 6.4 km/h 17.7 km/h 68% 0 mm
07:14 -9.2 °C -14 °C 1023.9 hPa West 9.7 km/h 24.1 km/h 68% 0 mm
07:19 -9.1 °C -13.9 °C 1023.9 hPa WSW 11.3 km/h 24.1 km/h 68% 0 mm
07:24 -9.2 °C -14 °C 1024.3 hPa WNW 12.9 km/h 19.3 km/h 68% 0 mm
07:29 -9.2 °C -14 °C 1024.3 hPa West 11.3 km/h 16.1 km/h 68% 0 mm
07:34 -9.2 °C -14.1 °C 1024.3 hPa SW 19.3 km/h 19.3 km/h 68% 0 mm
07:39 -9.3 °C -14.1 °C 1024.3 hPa WNW 6.4 km/h 19.3 km/h 68% 0 mm
07:44 -9.2 °C -13.9 °C 1024.3 hPa West 8 km/h 19.3 km/h 69% 0 mm
07:49 -9.1 °C -13.8 °C 1024.3 hPa West 9.7 km/h 19.3 km/h 69% 0 mm
07:54 -9.1 °C -13.8 °C 1024.6 hPa West 9.7 km/h 19.3 km/h 69% 0 mm
07:59 -9.1 °C -13.7 °C 1024.3 hPa West 9.7 km/h 19.3 km/h 69% 0 mm
08:04 -8.9 °C -13.8 °C 1024.3 hPa West 9.7 km/h 19.3 km/h 68% 0 mm
08:09 -8.8 °C -13.7 °C 1024.3 hPa West 8 km/h 17.7 km/h 68% 0 mm
08:14 -8.7 °C -13.7 °C 1024.6 hPa West 9.7 km/h 16.1 km/h 67% 0 mm
08:19 -8.6 °C -13.8 °C 1024.6 hPa SW 6.4 km/h 19.3 km/h 66% 0 mm
08:24 -8.4 °C -13.7 °C 1024.6 hPa West 12.9 km/h 16.1 km/h 66% 0 mm
08:29 -8.2 °C -13.4 °C 1024.6 hPa West 9.7 km/h 17.7 km/h 66% 0 mm
08:34 -8.1 °C -13.7 °C 1024.6 hPa West 17.7 km/h 24.1 km/h 64% 0 mm
08:39 -8.1 °C -13.7 °C 1024.6 hPa West 6.4 km/h 17.7 km/h 64% 0 mm
08:44 -8.1 °C -13.7 °C 1024.6 hPa West 4.8 km/h 16.1 km/h 64% 0 mm
08:49 -7.8 °C -13.4 °C 1024.6 hPa West 9.7 km/h 19.3 km/h 64% 0 mm
08:54 -7.6 °C -13.3 °C 1024.6 hPa West 9.7 km/h 19.3 km/h 64% 0 mm
08:59 -7.6 °C -13.4 °C 1024.3 hPa West 9.7 km/h 19.3 km/h 63% 0 mm
09:04 -7.5 °C -13.3 °C 1024.3 hPa West 11.3 km/h 22.5 km/h 63% 0 mm
09:09 -7.4 °C -13.2 °C 1024.3 hPa West 11.3 km/h 22.5 km/h 63% 0 mm
09:14 -7.3 °C -13.4 °C 1024.3 hPa WNW 9.7 km/h 17.7 km/h 62% 0 mm
09:19 -7.2 °C -13.3 °C 1024.3 hPa WSW 6.4 km/h 16.1 km/h 62% 0 mm
09:24 -7.3 °C -13.6 °C 1024.3 hPa WNW 11.3 km/h 22.5 km/h 61% 0 mm
09:29 -7.4 °C -13.6 °C 1024.3 hPa West 17.7 km/h 22.5 km/h 61% 0 mm
09:34 -7.4 °C -13.7 °C 1024.6 hPa WNW 17.7 km/h 19.3 km/h 61% 0 mm
09:39 -7.4 °C -13.5 °C 1024.6 hPa West 12.9 km/h 22.5 km/h 62% 0 mm
09:44 -7.6 °C -13.8 °C 1024.6 hPa West 8 km/h 24.1 km/h 61% 0 mm
09:49 -7.3 °C -13.5 °C 1024.6 hPa West 12.9 km/h 19.3 km/h 61% 0 mm
09:54 -6.9 °C -13.2 °C 1024.6 hPa West 8 km/h 19.3 km/h 61% 0 mm
09:59 -6.8 °C -13.3 °C 1024.6 hPa West 9.7 km/h 20.9 km/h 60% 0 mm
10:04 -7 °C -13.7 °C 1024.6 hPa West 9.7 km/h 20.9 km/h 59% 0 mm
10:09 -7.2 °C -14.1 °C 1024.6 hPa West 11.3 km/h 22.5 km/h 58% 0 mm
10:14 -7.2 °C -14.1 °C 1024.6 hPa NW 11.3 km/h 22.5 km/h 58% 0 mm
10:19 -6.7 °C -13.6 °C 1024.6 hPa West 4.8 km/h 25.7 km/h 58% 0 mm
10:24 -6.7 °C -13.8 °C 1024.6 hPa West 12.9 km/h 25.7 km/h 57% 0 mm
10:29 -6.8 °C -13.9 °C 1024.6 hPa WSW 11.3 km/h 24.1 km/h 57% 0 mm
10:34 -6.7 °C -13.8 °C 1024.6 hPa NW 4.8 km/h 22.5 km/h 57% 0 mm
10:39 -6.8 °C -14.2 °C 1024.6 hPa SW 8 km/h 27.4 km/h 56% 0 mm
10:44 -6.6 °C -13.9 °C 1024.6 hPa West 9.7 km/h 22.5 km/h 56% 0 mm
10:49 -6.2 °C -13.8 °C 1024.6 hPa West 11.3 km/h 20.9 km/h 55% 0 mm
10:54 -6.3 °C -14.1 °C 1024.6 hPa West 11.3 km/h 24.1 km/h 54% 0 mm
10:59 -6.3 °C -14.1 °C 1024.6 hPa West 11.3 km/h 24.1 km/h 54% 0 mm
11:04 -6.3 °C -14.3 °C 1024.6 hPa West 11.3 km/h 19.3 km/h 53% 0 mm
11:09 -6.2 °C -14.2 °C 1024.6 hPa WNW 11.3 km/h 27.4 km/h 53% 0 mm
11:14 -6.5 °C -14.3 °C 1024.6 hPa West 11.3 km/h 27.4 km/h 54% 0 mm
11:19 -6.6 °C -14.4 °C 1024.3 hPa WSW 12.9 km/h 25.7 km/h 54% 0 mm
11:24 -6.4 °C -14 °C 1024.3 hPa WSW 11.3 km/h 27.4 km/h 55% 0 mm
11:29 -6.6 °C -13.9 °C 1024.3 hPa WSW 12.9 km/h 27.4 km/h 56% 0 mm
11:34 -6.8 °C -14.1 °C 1024.3 hPa West 8 km/h 24.1 km/h 56% 0 mm
11:39 -6.5 °C -13.8 °C 1023.9 hPa SW 16.1 km/h 24.1 km/h 56% 0 mm
11:44 -6.3 °C -13.8 °C 1023.9 hPa West 9.7 km/h 17.7 km/h 55% 0 mm
11:49 -6.3 °C -14.1 °C 1023.9 hPa WSW 12.9 km/h 19.3 km/h 54% 0 mm
11:54 -6.1 °C -13.4 °C 1023.6 hPa SSW 16.1 km/h 24.1 km/h 56% 0 mm
11:59 -6.2 °C -13.6 °C 1023.6 hPa WSW 16.1 km/h 20.9 km/h 56% 0 mm
12:04 -6.3 °C -13.9 °C 1023.6 hPa WSW 12.9 km/h 25.7 km/h 55% 0 mm
12:09 -6.2 °C -13.6 °C 1023.6 hPa WSW 11.3 km/h 25.7 km/h 56% 0 mm
12:14 -6 °C -13.6 °C 1023.6 hPa WSW 9.7 km/h 22.5 km/h 55% 0 mm
12:19 -6.1 °C -13.9 °C 1023.2 hPa WSW 11.3 km/h 27.4 km/h 54% 0 mm
12:24 -6.1 °C -13.9 °C 1023.2 hPa WSW 12.9 km/h 27.4 km/h 54% 0 mm
12:29 -5.8 °C -13.4 °C 1023.2 hPa WSW 17.7 km/h 19.3 km/h 55% 0 mm
12:34 -6 °C -13.4 °C 1023.2 hPa NW 12.9 km/h 27.4 km/h 56% 0 mm
12:39 -6 °C -13.4 °C 1023.2 hPa WSW 12.9 km/h 27.4 km/h 56% 0 mm
12:44 -6.1 °C -13.4 °C 1023.2 hPa West 4.8 km/h 30.6 km/h 56% 0 mm
12:49 -6.2 °C -13.6 °C 1023.2 hPa WSW 16.1 km/h 30.6 km/h 56% 0 mm
12:54 -6.4 °C -12.9 °C 1023.2 hPa West 17.7 km/h 27.4 km/h 60% 0 mm
12:59 -6.6 °C -13.1 °C 1023.2 hPa West 6.4 km/h 29 km/h 60% 0 mm
13:04 -6.7 °C -13.2 °C 1023.2 hPa WSW 11.3 km/h 22.5 km/h 60% 0 mm
13:09 -6.7 °C -13.4 °C 1023.2 hPa West 12.9 km/h 25.7 km/h 59% 0 mm
13:14 -6.8 °C -13.7 °C 1023.2 hPa West 12.9 km/h 25.7 km/h 58% 0 mm
13:19 -6.6 °C -13.1 °C 1023.2 hPa West 11.3 km/h 25.7 km/h 60% 0 mm
13:24 -6.5 °C -13.2 °C 1023.2 hPa West 9.7 km/h 25.7 km/h 59% 0 mm
13:29 -6.6 °C -13.4 °C 1023.2 hPa West 12.9 km/h 24.1 km/h 58% 0 mm
13:34 -6.7 °C -13.3 °C 1022.9 hPa WSW 9.7 km/h 24.1 km/h 59% 0 mm
13:39 -6.6 °C -13.1 °C 1023.2 hPa WSW 11.3 km/h 24.1 km/h 60% 0 mm
13:44 -6.6 °C -13.1 °C 1023.2 hPa West 11.3 km/h 29 km/h 60% 0 mm
13:49 -6.7 °C -13.2 °C 1023.2 hPa West 11.3 km/h 22.5 km/h 60% 0 mm
13:54 -6.6 °C -13.3 °C 1023.2 hPa WSW 9.7 km/h 24.1 km/h 59% 0 mm
13:59 -6.5 °C -13.2 °C 1023.2 hPa West 12.9 km/h 20.9 km/h 59% 0 mm
14:04 -6.6 °C -13.3 °C 1022.9 hPa NW 11.3 km/h 24.1 km/h 59% 0 mm
14:09 -6.7 °C -13.4 °C 1023.2 hPa WNW 8 km/h 24.1 km/h 59% 0 mm
14:14 -6.8 °C -13.4 °C 1023.2 hPa West 11.3 km/h 24.1 km/h 59% 0 mm
14:19 -6.6 °C -13.7 °C 1022.9 hPa West 11.3 km/h 24.1 km/h 57% 0 mm
14:24 -6.7 °C -14.2 °C 1023.2 hPa West 11.3 km/h 22.5 km/h 55% 0 mm
14:29 -6.9 °C -14.2 °C 1023.2 hPa West 11.3 km/h 22.5 km/h 56% 0 mm
14:34 -6.7 °C -14 °C 1023.2 hPa West 12.9 km/h 22.5 km/h 56% 0 mm
14:39 -6.3 °C -13.6 °C 1023.2 hPa WNW 12.9 km/h 16.1 km/h 56% 0 mm
14:44 -5.8 °C -13.4 °C 1023.2 hPa West 11.3 km/h 22.5 km/h 55% 0 mm
14:49 -5.8 °C -13.4 °C 1023.2 hPa West 11.3 km/h 24.1 km/h 55% 0 mm
14:54 -5.8 °C -13.6 °C 1023.2 hPa WNW 9.7 km/h 27.4 km/h 54% 0 mm
14:59 -5.8 °C -13.4 °C 1023.2 hPa West 12.9 km/h 25.7 km/h 55% 0 mm
15:04 -5.7 °C -13.3 °C 1023.2 hPa WNW 11.3 km/h 29 km/h 55% 0 mm
15:09 -5.6 °C -13.2 °C 1023.2 hPa WNW 9.7 km/h 25.7 km/h 55% 0 mm
15:14 -5.8 °C -13.7 °C 1023.2 hPa West 14.5 km/h 24.1 km/h 54% 0 mm
15:19 -6.2 °C -13.8 °C 1023.6 hPa West 12.9 km/h 24.1 km/h 55% 0 mm
15:24 -6.1 °C -13 °C 1023.6 hPa West 11.3 km/h 22.5 km/h 58% 0 mm
15:29 -6.2 °C -12.9 °C 1023.6 hPa WSW 9.7 km/h 20.9 km/h 59% 0 mm
15:34 -6.2 °C -13.1 °C 1023.6 hPa WSW 11.3 km/h 22.5 km/h 58% 0 mm
15:39 -6.3 °C -13.8 °C 1023.6 hPa West 9.7 km/h 25.7 km/h 55% 0 mm
15:44 -6.1 °C -13.4 °C 1023.6 hPa WSW 8 km/h 19.3 km/h 56% 0 mm
15:49 -5.9 °C -13.1 °C 1023.6 hPa West 11.3 km/h 24.1 km/h 57% 0 mm
15:54 -6 °C -12.9 °C 1023.9 hPa WSW 11.3 km/h 24.1 km/h 58% 0 mm
15:59 -6.3 °C -13.4 °C 1023.6 hPa WSW 12.9 km/h 29 km/h 57% 0 mm
16:04 -6.4 °C -13.3 °C 1023.9 hPa WNW 11.3 km/h 27.4 km/h 58% 0 mm
16:09 -6.6 °C -13.1 °C 1023.9 hPa SW 6.4 km/h 24.1 km/h 60% 0 mm
16:14 -6.7 °C -13.3 °C 1023.9 hPa WSW 16.1 km/h 24.1 km/h 59% 0 mm
16:19 -6.6 °C -13.1 °C 1023.9 hPa WSW 8 km/h 20.9 km/h 60% 0 mm
16:24 -6.9 °C -13 °C 1023.9 hPa West 11.3 km/h 20.9 km/h 62% 0 mm
16:29 -7.2 °C -12.8 °C 1023.9 hPa West 9.7 km/h 20.9 km/h 64% 0 mm
16:34 -7.2 °C -12.7 °C 1023.9 hPa West 9.7 km/h 20.9 km/h 65% 0 mm
16:39 -7.2 °C -12.7 °C 1023.9 hPa West 11.3 km/h 20.9 km/h 65% 0 mm
16:44 -7.3 °C -12.7 °C 1023.9 hPa WSW 11.3 km/h 22.5 km/h 65% 0 mm
16:49 -7.3 °C -12.7 °C 1024.3 hPa WSW 11.3 km/h 25.7 km/h 65% 0 mm
16:54 -7.3 °C -12.9 °C 1024.3 hPa WSW 12.9 km/h 29 km/h 64% 0 mm
16:59 -7.3 °C -12.9 °C 1024.3 hPa WNW 6.4 km/h 22.5 km/h 64% 0 mm
17:04 -7.3 °C -12.9 °C 1024.3 hPa WNW 14.5 km/h 22.5 km/h 64% 0 mm
17:09 -7.5 °C -13.2 °C 1024.3 hPa WSW 19.3 km/h 22.5 km/h 64% 0 mm
17:14 -7.6 °C -13.3 °C 1024.3 hPa West 20.9 km/h 27.4 km/h 64% 0 mm
17:19 -7.7 °C -13.3 °C 1024.6 hPa WSW 17.7 km/h 24.1 km/h 64% 0 mm
17:24 -7.8 °C -13.2 °C 1024.6 hPa West 9.7 km/h 19.3 km/h 65% 0 mm
17:29 -7.8 °C -13.4 °C 1024.6 hPa West 9.7 km/h 22.5 km/h 64% 0 mm
17:34 -7.8 °C -13.4 °C 1024.6 hPa West 11.3 km/h 22.5 km/h 64% 0 mm
17:39 -7.9 °C -13.4 °C 1024.6 hPa West 9.7 km/h 22.5 km/h 65% 0 mm
17:44 -7.9 °C -13.4 °C 1024.9 hPa West 9.7 km/h 22.5 km/h 65% 0 mm
17:49 -8 °C -13.4 °C 1024.9 hPa West 11.3 km/h 22.5 km/h 65% 0 mm
17:54 -8.1 °C -13.5 °C 1024.9 hPa West 11.3 km/h 22.5 km/h 65% 0 mm
17:59 -8.1 °C -13.5 °C 1024.9 hPa West 6.4 km/h 22.5 km/h 65% 0 mm
18:04 -8.1 °C -13.6 °C 1024.9 hPa West 11.3 km/h 24.1 km/h 65% 0 mm
18:09 -8.2 °C -13.6 °C 1025.3 hPa WNW 6.4 km/h 24.1 km/h 65% 0 mm
18:14 -8.2 °C -13.6 °C 1025.3 hPa West 6.4 km/h 29 km/h 65% 0 mm
18:19 -8.2 °C -13.8 °C 1025.3 hPa West 16.1 km/h 25.7 km/h 64% 0 mm
18:24 -8.2 °C -13.8 °C 1025.3 hPa SW 12.9 km/h 22.5 km/h 64% 0 mm
18:29 -8.2 °C -13.8 °C 1025.6 hPa West 19.3 km/h 25.7 km/h 64% 0 mm
18:34 -8.3 °C -13.9 °C 1025.6 hPa West 14.5 km/h 30.6 km/h 64% 0 mm
18:39 -8.3 °C -13.9 °C 1025.6 hPa WSW 11.3 km/h 30.6 km/h 64% 0 mm
18:44 -8.4 °C -14.1 °C 1025.6 hPa WSW 11.3 km/h 22.5 km/h 64% 0 mm
18:49 -8.4 °C -14.1 °C 1025.6 hPa WSW 8 km/h 29 km/h 64% 0 mm
18:54 -8.5 °C -14.1 °C 1026 hPa West 12.9 km/h 29 km/h 64% 0 mm
18:59 -8.6 °C -13.9 °C 1026 hPa West 9.7 km/h 19.3 km/h 65% 0 mm
19:04 -8.6 °C -14 °C 1026 hPa West 27.4 km/h 27.4 km/h 65% 0 mm
19:09 -8.7 °C -13.9 °C 1026 hPa West 12.9 km/h 27.4 km/h 66% 0 mm
19:14 -8.7 °C -13.9 °C 1026 hPa West 12.9 km/h 27.4 km/h 66% 0 mm
19:19 -8.8 °C -13.8 °C 1026.3 hPa West 11.3 km/h 24.1 km/h 67% 0 mm
19:24 -8.8 °C -13.8 °C 1026.3 hPa West 17.7 km/h 24.1 km/h 67% 0 mm
19:29 -8.9 °C -13.7 °C 1026.3 hPa WNW 6.4 km/h 20.9 km/h 68% 0 mm
19:34 -8.9 °C -13.8 °C 1026.6 hPa West 12.9 km/h 14.5 km/h 68% 0 mm
19:39 -8.9 °C -13.8 °C 1026.6 hPa West 8 km/h 22.5 km/h 68% 0 mm
19:44 -9 °C -13.8 °C 1026.6 hPa West 11.3 km/h 27.4 km/h 68% 0 mm
19:49 -9 °C -13.8 °C 1026.6 hPa West 11.3 km/h 27.4 km/h 68% 0 mm
19:54 -9 °C -13.7 °C 1026.6 hPa West 9.7 km/h 25.7 km/h 69% 0 mm
19:59 -9.1 °C -13.7 °C 1026.6 hPa West 9.7 km/h 17.7 km/h 69% 0 mm
20:04 -9.1 °C -13.7 °C 1026.6 hPa WSW 4.8 km/h 16.1 km/h 69% 0 mm
20:09 -9.1 °C -13.7 °C 1026.6 hPa WNW 11.3 km/h 22.5 km/h 69% 0 mm
20:14 -9.1 °C -13.8 °C 1026.6 hPa West 9.7 km/h 22.5 km/h 69% 0 mm
20:19 -9.1 °C -13.7 °C 1026.6 hPa West 9.7 km/h 25.7 km/h 69% 0 mm
20:24 -9 °C -13.5 °C 1026.6 hPa West 12.9 km/h 27.4 km/h 70% 0 mm
20:29 -9 °C -13.5 °C 1026.6 hPa West 12.9 km/h 27.4 km/h 70% 0 mm
20:34 -8.9 °C -13.4 °C 1026.6 hPa West 20.9 km/h 20.9 km/h 70% 0 mm
20:39 -8.9 °C -13.6 °C 1026.6 hPa West 14.5 km/h 27.4 km/h 69% 0 mm
20:44 -9 °C -13.7 °C 1026.6 hPa WSW 11.3 km/h 19.3 km/h 69% 0 mm
20:49 -8.9 °C -13.6 °C 1026.6 hPa West 9.7 km/h 19.3 km/h 69% 0 mm
20:54 -8.8 °C -13.5 °C 1027 hPa West 16.1 km/h 24.1 km/h 69% 0 mm
20:59 -8.8 °C -13.5 °C 1027 hPa WNW 8 km/h 22.5 km/h 69% 0 mm
21:04 -8.8 °C -13.4 °C 1027 hPa WNW 14.5 km/h 22.5 km/h 69% 0 mm
21:09 -8.8 °C -13.4 °C 1027 hPa WNW 8 km/h 24.1 km/h 69% 0 mm
21:14 -8.7 °C -13.4 °C 1027 hPa WSW 6.4 km/h 19.3 km/h 69% 0 mm
21:19 -8.7 °C -13.4 °C 1027 hPa West 9.7 km/h 25.7 km/h 69% 0 mm
21:24 -8.7 °C -13.5 °C 1027 hPa West 11.3 km/h 27.4 km/h 68% 0 mm
21:29 -8.7 °C -13.6 °C 1027 hPa West 12.9 km/h 27.4 km/h 68% 0 mm
21:34 -8.7 °C -13.6 °C 1027 hPa West 11.3 km/h 22.5 km/h 68% 0 mm
21:39 -8.7 °C -13.5 °C 1027 hPa West 11.3 km/h 24.1 km/h 68% 0 mm
21:44 -8.7 °C -13.5 °C 1027 hPa West 9.7 km/h 19.3 km/h 68% 0 mm
21:49 -8.7 °C -13.5 °C 1027 hPa West 14.5 km/h 17.7 km/h 68% 0 mm
21:54 -8.7 °C -13.7 °C 1027 hPa West 11.3 km/h 19.3 km/h 67% 0 mm
21:59 -8.6 °C -13.7 °C 1027 hPa SW 4.8 km/h 20.9 km/h 67% 0 mm
22:04 -8.5 °C -13.7 °C 1027 hPa West 9.7 km/h 16.1 km/h 66% 0 mm
22:09 -8.5 °C -13.7 °C 1027 hPa WSW 11.3 km/h 20.9 km/h 66% 0 mm
22:14 -8.3 °C -13.6 °C 1027 hPa NW 8 km/h 24.1 km/h 66% 0 mm
22:19 -8.3 °C -13.5 °C 1027.3 hPa WNW 9.7 km/h 27.4 km/h 66% 0 mm
22:24 -8.2 °C -13.4 °C 1027.3 hPa West 9.7 km/h 27.4 km/h 66% 0 mm
22:29 -8.2 °C -13.6 °C 1027.3 hPa West 11.3 km/h 24.1 km/h 65% 0 mm
22:34 -8.1 °C -13.5 °C 1027.3 hPa West 11.3 km/h 24.1 km/h 65% 0 mm
22:39 -8.1 °C -13.5 °C 1027.3 hPa West 9.7 km/h 19.3 km/h 65% 0 mm
22:44 -7.9 °C -13.4 °C 1027.3 hPa West 9.7 km/h 19.3 km/h 65% 0 mm
22:49 -7.9 °C -13.3 °C 1027.3 hPa West 16.1 km/h 22.5 km/h 65% 0 mm
22:54 -7.8 °C -13.4 °C 1027.3 hPa WNW 11.3 km/h 30.6 km/h 64% 0 mm
22:59 -7.9 °C -13.3 °C 1027.3 hPa West 11.3 km/h 30.6 km/h 65% 0 mm
23:04 -7.9 °C -13.4 °C 1027.3 hPa WNW 9.7 km/h 19.3 km/h 65% 0 mm
23:09 -7.9 °C -13.4 °C 1027.3 hPa West 9.7 km/h 22.5 km/h 65% 0 mm
23:14 -8.1 °C -13.5 °C 1027.7 hPa West 16.1 km/h 25.7 km/h 65% 0 mm
23:19 -8 °C -13.4 °C 1027.7 hPa WSW 12.9 km/h 19.3 km/h 65% 0 mm
23:24 -7.9 °C -13.3 °C 1027.7 hPa WSW 8 km/h 19.3 km/h 65% 0 mm
23:29 -7.8 °C -13.3 °C 1027.7 hPa West 11.3 km/h 25.7 km/h 65% 0 mm
23:34 -7.8 °C -13.2 °C 1027.7 hPa West 12.9 km/h 25.7 km/h 65% 0 mm
23:39 -7.8 °C -13.2 °C 1027.7 hPa West 11.3 km/h 25.7 km/h 65% 0 mm
23:44 -7.8 °C -13.2 °C 1027.7 hPa West 9.7 km/h 22.5 km/h 65% 0 mm
23:49 -7.8 °C -13.1 °C 1027.7 hPa West 9.7 km/h 19.3 km/h 66% 0 mm
23:54 -7.8 °C -13.1 °C 1027.7 hPa SW 9.7 km/h 30.6 km/h 66% 0 mm
23:59 -7.6 °C -12.9 °C 1027.7 hPa West 6.4 km/h 22.5 km/h 66% 0 mm
Buffalo, New York, USA
Compliments of Weather Underground - 2.5 mb